[[{"header":{"parameterUnit":"m.s-1","parameterCategory":2,"la1":30.2991,"la2":30.254,"lo1":-89.0895,"lo2":-89.0444,"dx":0.0017,"dy":0.0017,"nx":28,"ny":28,"refTime":"2022-11-05T21:00:00:Z","depth":"0","parameterNumber":2,"parameterNumberName":"U-component_of_CURRENTS"},"data":[0,0,0,0,0,0,0,0,0,0,0,0,0,0,0,0,0,0,0,0,0,0,0,0,0,0,0,0,0,0,0,0,0,0,0,0,0,0,0,0,0,0,0,0,0,0,0,0,0,0,0,0,0,0,0,0,0,0,-0.2432,-0.2432,0,-0.2395,-0.2395,-0.2394,-0.2366,-0.2366,-0.2366,-0.2366,-0.2196,-0.2192,-0.2187,0,0,0,0,0,0,0,0,0,0,0,0,0,-0.241,-0.241,-0.2432,-0.2432,-0.2432,-0.2395,-0.2395,-0.2394,-0.2366,-0.2366,-0.2366,-0.2366,-0.2198,-0.2192,-0.2187,0,0,0,0,0,0,0,0,0,0,0,0,0,-0.2397,-0.241,-0.2432,-0.2417,-0.2415,-0.2396,-0.2395,-0.2393,-0.2366,-0.2366,-0.2366,-0.2366,-0.22,-0.2193,-0.2186,-0.214,0,0,-0.2165,-0.2162,0,0,0,0,0,0,0,0,-0.2398,-0.2397,-0.2419,-0.2418,-0.2416,-0.2389,-0.2325,-0.2303,-0.2365,-0.238,-0.2366,-0.2366,-0.2251,-0.224,-0.2228,-0.2132,-0.2124,-0.2164,-0.216,-0.2157,-0.2155,0,0,0,0,0,0,0,-0.2399,-0.2398,-0.2413,-0.2419,-0.2417,-0.2388,-0.2387,-0.232,-0.2309,-0.2379,-0.2378,-0.238,-0.2249,-0.2235,-0.2224,-0.2122,-0.2164,-0.2158,-0.2154,-0.2151,-0.2015,-0.2016,0,0,0,0,0,0,-0.2415,-0.24,-0.2415,-0.2413,-0.2412,-0.2389,-0.2387,-0.2394,-0.2313,-0.2303,-0.238,-0.2379,-0.2247,-0.2232,-0.2218,-0.2197,-0.2157,-0.2151,-0.2147,-0.2014,-0.2015,-0.2016,0,0,0,0,0,0,-0.2415,-0.2417,-0.2416,-0.2408,-0.2407,-0.239,-0.2397,-0.2393,-0.2382,-0.2316,-0.2303,-0.2374,-0.2247,-0.2227,-0.2175,-0.2188,-0.2147,-0.2141,-0.2014,-0.2015,-0.2015,-0.2129,0,0,0,0,0,0,-0.2415,-0.2417,-0.2424,-0.241,-0.2408,-0.2424,-0.2398,-0.2393,-0.2385,-0.2383,-0.2306,-0.2291,-0.2245,-0.2186,-0.2168,-0.2178,-0.2136,-0.2013,-0.2014,-0.2015,-0.2125,-0.2134,-0.2141,0,0,0,0,0,-0.2414,-0.2428,-0.2425,-0.2427,-0.242,-0.2426,-0.2422,-0.2407,-0.2385,-0.2393,-0.2339,-0.2293,-0.218,-0.218,-0.2159,-0.2168,-0.2013,-0.2014,-0.2015,-0.2121,-0.2132,-0.2141,0,0,0,0,0,0,-0.2409,-0.2427,-0.2423,-0.2438,-0.2441,-0.2423,-0.2423,-0.2409,-0.2372,-0.2359,-0.2291,-0.2272,-0.2234,-0.2181,-0.2183,-0.2133,-0.2091,-0.2088,-0.2179,-0.2188,-0.2197,-0.2223,-0.213,0,0,0,0,0,-0.2416,-0.2438,-0.2442,-0.2453,-0.2456,-0.2436,-0.2433,-0.2426,-0.2395,-0.238,-0.233,-0.227,-0.2221,-0.2191,-0.2139,-0.2101,-0.2085,-0.2095,-0.2104,-0.2111,-0.2119,-0.2118,-0.2128,-0.202,-0.202,-0.202,0,0,-0.2415,-0.2428,-0.2438,-0.2455,-0.2447,-0.2463,-0.2434,-0.2436,-0.2443,-0.2362,-0.2342,-0.2291,-0.2217,-0.2189,-0.2166,-0.2147,-0.2137,-0.2113,-0.212,-0.2124,-0.2121,-0.2131,-0.2141,-0.2021,-0.202,-0.202,0,0,-0.2437,-0.2437,-0.2469,-0.2479,-0.2488,-0.2478,-0.2483,-0.2471,-0.246,-0.2435,-0.2386,-0.2354,-0.2266,-0.224,-0.2206,-0.2224,-0.2182,-0.22,-0.2261,-0.2261,-0.2271,-0.2279,-0.2297,-0.2305,-0.2205,-0.2205,-0.2206,0,-0.2438,-0.2479,-0.2476,-0.2507,-0.2518,-0.2489,-0.2518,-0.2502,-0.2475,-0.2471,-0.2442,-0.2358,-0.2296,-0.2275,-0.2286,-0.2245,-0.2242,-0.2233,-0.2276,-0.2283,-0.2289,-0.2305,-0.2313,-0.2211,-0.221,-0.221,-0.2209,0,-0.2486,-0.2519,-0.2533,-0.2569,-0.2575,-0.2595,-0.2582,-0.2578,-0.255,-0.2538,-0.2514,-0.2447,-0.2402,-0.2381,-0.2331,-0.2347,-0.2331,-0.229,-0.2258,-0.2308,-0.232,-0.2327,-0.2219,-0.2217,-0.2215,-0.2214,0,0,-0.2498,-0.2562,-0.2569,-0.2606,-0.2614,-0.2631,-0.263,-0.2639,-0.2651,-0.2614,-0.2627,-0.2557,-0.2529,-0.249,-0.2437,-0.2436,-0.248,-0.2387,-0.2385,-0.2421,-0.2499,-0.245,-0.2452,-0.2449,-0.245,-0.2451,-0.25,0,-0.2543,-0.2634,-0.2637,-0.2701,-0.2747,-0.272,-0.2726,-0.2722,-0.2705,-0.2708,-0.2651,-0.2632,-0.2567,-0.2551,-0.2541,-0.248,-0.2498,-0.2472,-0.2431,-0.2431,-0.2393,-0.2458,-0.2229,-0.2249,-0.2506,-0.2507,-0.2508,0,-0.2594,-0.2656,-0.2736,-0.2798,-0.2809,-0.2825,-0.2844,-0.2849,-0.2831,-0.2814,-0.2793,-0.2745,-0.272,-0.266,-0.2619,-0.2605,-0.257,-0.2534,-0.2534,-0.2451,-0.2392,-0.2233,-0.225,-0.2117,-0.2517,-0.2516,-0.2515,0,-0.2636,-0.2723,-0.2795,-0.2816,-0.2866,-0.2879,-0.2891,-0.2884,-0.2879,-0.2887,-0.287,-0.2852,-0.2804,-0.2777,-0.2672,-0.2658,-0.2631,-0.26,-0.2539,-0.2536,-0.2312,-0.2287,-0.2203,-0.2606,-0.2606,-0.2606,-0.2606,0,-0.2698,-0.2752,-0.2824,-0.2867,-0.2919,-0.2938,-0.2966,-0.2971,-0.2965,-0.2948,-0.2925,-0.2889,-0.2826,-0.2777,-0.2723,-0.2641,-0.267,-0.2571,-0.2548,-0.2347,-0.2326,-0.2174,-0.2184,-0.2608,-0.2607,-0.2607,-0.2607,0,-0.2717,-0.2777,-0.2854,-0.2928,-0.2939,-0.2973,-0.298,-0.2993,-0.2996,-0.297,-0.2965,-0.2912,-0.2848,-0.2792,-0.2733,-0.2676,-0.2549,-0.2597,-0.2376,-0.2327,-0.2166,-0.2192,-0.2198,-0.2158,-0.257,-0.2569,-0.2568,0,-0.2731,-0.2778,-0.287,-0.2882,-0.2905,-0.2946,-0.2948,-0.2989,-0.2982,-0.2957,-0.2927,-0.2883,-0.2793,-0.271,-0.2591,-0.2526,-0.2491,-0.2333,-0.2271,-0.2145,-0.2157,-0.2206,-0.2176,-0.2028,-0.2023,-0.2019,-0.2015,0,-0.2709,-0.2737,-0.278,-0.2813,-0.2836,-0.288,-0.2893,-0.2902,-0.2918,-0.2888,-0.282,-0.2766,-0.2645,-0.243,-0.2354,-0.2297,-0.2216,-0.225,-0.2146,-0.1766,-0.1785,-0.1734,-0.2039,-0.1978,-0.1982,-0.1984,-0.1986,-0.1988,-0.2616,-0.2633,-0.2653,-0.2665,-0.2707,-0.2737,-0.2686,-0.272,-0.2688,-0.2536,-0.2635,-0.2395,-0.2219,-0.2046,-0.2004,-0.1759,-0.1975,-0.1669,-0.1729,-0.1804,-0.1708,-0.1967,-0.1865,-0.1868,-0.187,-0.1872,-0.1874,0,-0.243,-0.245,-0.2477,-0.2466,-0.2425,-0.2525,-0.2545,-0.2434,-0.2317,-0.223,-0.2114,-0.1781,-0.1582,-0.1444,-0.1241,-0.1184,-0.1193,-0.1191,-0.1136,-0.1149,-0.1336,-0.1244,-0.0968,-0.0968,-0.0968,-0.0968,-0.0969,-0.0969,-0.232,-0.2255,-0.2281,-0.2135,-0.2127,-0.2011,-0.1984,-0.1898,-0.1773,-0.1451,-0.1172,-0.106,-0.0986,-0.0903,-0.0743,-0.0735,-0.0744,-0.0764,-0.0913,-0.092,-0.0966,-0.101,-0.0917,-0.0577,-0.0577,-0.0576,-0.0576,-0.0576]},{"header":{"parameterUnit":"m.s-1","parameterCategory":2,"la1":30.2991,"la2":30.254,"lo1":-89.0895,"lo2":-89.0444,"dx":0.0017,"dy":0.0017,"nx":28,"ny":28,"refTime":"2022-11-05T21:00:00:Z","depth":"0","parameterNumber":3,"parameterNumberName":"V-component_of_CURRENTS"},"data":[0,0,0,0,0,0,0,0,0,0,0,0,0,0,0,0,0,0,0,0,0,0,0,0,0,0,0,0,0,0,0,0,0,0,0,0,0,0,0,0,0,0,0,0,0,0,0,0,0,0,0,0,0,0,0,0,0,0,0.0023,0.0024,0,0.0065,0.0065,0.0066,0.0065,0.0064,0.0064,0.0063,0.0123,0.0125,0.0127,0,0,0,0,0,0,0,0,0,0,0,0,0,-0.0048,-0.0047,0.0023,0.0024,0.0024,0.0065,0.0065,0.0066,0.0065,0.0064,0.0063,0.0063,0.0122,0.0125,0.0127,0,0,0,0,0,0,0,0,0,0,0,0,0,-0.0012,-0.0046,0.0023,0.0028,0.0029,0.0065,0.0065,0.0066,0.0065,0.0064,0.0063,0.0062,0.0121,0.0124,0.0127,0.0166,0,0,0.0137,0.0139,0,0,0,0,0,0,0,0,-0.0014,-0.001,0.0027,0.0028,0.0029,0.0058,0.0062,0.01,0.0065,0.0052,0.0063,0.0062,0.0103,0.0108,0.0118,0.0168,0.0171,0.0138,0.014,0.0141,0.0142,0,0,0,0,0,0,0,-0.0017,-0.0012,0.004,0.0028,0.0029,0.0032,0.0036,0.0069,0.0083,0.0053,0.0053,0.0057,0.0104,0.0115,0.012,0.0172,0.0138,0.014,0.0142,0.0144,0.0226,0.0226,0,0,0,0,0,0,-0.0022,-0.0014,0.0039,0.0041,0.0004,0.0033,0.0038,0.005,0.0082,0.0086,0.0058,0.0057,0.011,0.0116,0.0122,0.0134,0.0141,0.0144,0.0146,0.0225,0.0226,0.0226,0,0,0,0,0,0,-0.0023,-0.0017,0.0037,0.0014,0.0021,0.0036,0.0049,0.0051,0.0059,0.0086,0.0089,0.0062,0.0109,0.0117,0.0148,0.0138,0.0145,0.0148,0.0225,0.0225,0.0226,0.0182,0,0,0,0,0,0,-0.0026,-0.0018,-0.0011,0.0014,0.0022,0.0052,0.005,0.0053,0.0063,0.0062,0.0091,0.0096,0.0109,0.0143,0.0151,0.0143,0.0151,0.0225,0.0225,0.0226,0.0183,0.0181,0.0179,0,0,0,0,0,-0.0028,-0.0022,-0.001,-0.0004,0.0032,0.0052,0.0057,0.0064,0.0064,0.0068,0.0088,0.0095,0.0151,0.0147,0.0156,0.0148,0.0225,0.0225,0.0226,0.0184,0.0182,0.0179,0,0,0,0,0,0,-0.0056,-0.002,-0.0008,0.0008,0.0028,0.0052,0.0053,0.0066,0.0086,0.0084,0.0108,0.0115,0.0133,0.0155,0.015,0.0173,0.0186,0.0188,0.0151,0.0149,0.0147,0.0137,0.0154,0,0,0,0,0,-0.0054,-0.0038,-0.0006,0.0005,0.0014,0.0037,0.0046,0.0056,0.0076,0.0083,0.0104,0.0126,0.0145,0.0158,0.018,0.0205,0.0205,0.0204,0.0201,0.0199,0.0199,0.0201,0.0198,0.0228,0.0228,0.0228,0,0,-0.0063,-0.0041,-0.0032,0.0001,0.0015,0.0022,0.004,0.0052,0.0056,0.0089,0.0099,0.0123,0.0151,0.0167,0.0177,0.0183,0.0187,0.02,0.0198,0.0199,0.0201,0.0198,0.0195,0.0228,0.0228,0.0228,0,0,-0.0082,-0.0051,-0.005,-0.0031,-0.0007,0.0011,0.0014,0.0042,0.005,0.0072,0.0089,0.0111,0.0145,0.0159,0.0171,0.0178,0.0175,0.018,0.0163,0.0164,0.0161,0.0158,0.013,0.0125,0.0179,0.0179,0.0179,0,-0.0099,-0.0084,-0.0048,-0.0044,-0.0035,0.0003,0.0001,0.0019,0.0052,0.0061,0.0067,0.0111,0.0138,0.0154,0.0152,0.0171,0.0161,0.0166,0.0159,0.0157,0.0155,0.0127,0.0122,0.0177,0.0177,0.0177,0.0178,0,-0.0118,-0.0105,-0.0105,-0.0084,-0.0068,-0.0061,-0.003,-0.0014,0.0003,0.0022,0.0043,0.0081,0.0105,0.0115,0.0137,0.0139,0.013,0.0153,0.016,0.0149,0.012,0.0116,0.0174,0.0175,0.0175,0.0176,0,0,-0.0166,-0.0126,-0.0128,-0.0125,-0.0086,-0.008,-0.0065,-0.0043,-0.0044,-0.0008,-0.0011,0.0035,0.0057,0.0074,0.0103,0.0111,0.0087,0.0124,0.0125,0.0084,0.0061,0.0101,0.01,0.0104,0.0103,0.0103,0.0035,0,-0.0198,-0.0201,-0.0167,-0.0173,-0.0173,-0.0128,-0.0121,-0.0093,-0.0069,-0.0061,-0.0018,-0.0006,0.004,0.0046,0.0063,0.0086,0.0079,0.0101,0.0088,0.0087,0.0116,0.0099,0.0176,0.0128,0.0032,0.0031,0.003,0,-0.0236,-0.0229,-0.024,-0.0217,-0.0214,-0.021,-0.0191,-0.0177,-0.0144,-0.0128,-0.0098,-0.0065,-0.0038,-0.0003,0.0021,0.0031,0.004,0.0055,0.0053,0.0107,0.0122,0.013,0.0124,0.0228,0.0025,0.0025,0.0025,0,-0.0301,-0.0284,-0.0295,-0.0287,-0.0255,-0.0253,-0.0236,-0.0202,-0.0205,-0.0172,-0.0179,-0.0128,-0.0123,-0.0085,-0.004,-0.0016,-0.0033,0.0005,0.0041,0.0042,0.0116,0.0125,0.0206,0.0005,0.0005,0.0006,0.0006,0,-0.0355,-0.0364,-0.0327,-0.0336,-0.0355,-0.0307,-0.0329,-0.0299,-0.0282,-0.0304,-0.0221,-0.0237,-0.0143,-0.0131,-0.0081,-0.0038,-0.0067,0.0031,0.0035,0.0102,0.011,0.0212,0.0238,0.0003,0.0004,0.0004,0.0005,0,-0.0432,-0.0404,-0.0417,-0.039,-0.0388,-0.0403,-0.0399,-0.042,-0.0379,-0.0408,-0.0403,-0.0342,-0.0308,-0.023,-0.0183,-0.01,0.0005,-0.0043,0.0017,0.0032,0.0211,0.023,0.0265,0.0316,0.0006,0.0006,0.0007,0,-0.0474,-0.0487,-0.0475,-0.0495,-0.0488,-0.0502,-0.0524,-0.0484,-0.0505,-0.0482,-0.0512,-0.0469,-0.0446,-0.0347,-0.0185,-0.0086,-0.0018,0.0044,0.0132,0.0229,0.0252,0.0256,0.0297,0.019,0.0192,0.0193,0.0195,0,-0.0557,-0.0546,-0.0557,-0.0595,-0.0621,-0.0651,-0.0669,-0.0693,-0.0657,-0.0645,-0.0641,-0.0613,-0.0488,-0.0301,-0.0136,-0.006,0.0148,0.0083,0.0178,0.0401,0.0414,0.0463,0.0197,0.021,0.0208,0.0207,0.0206,0.0206,-0.0621,-0.0645,-0.0658,-0.0698,-0.0735,-0.078,-0.0786,-0.0768,-0.0767,-0.0626,-0.0678,-0.0455,-0.0321,-0.005,0.0015,0.0295,0.0232,0.0415,0.0422,0.0408,0.0503,0.0258,0.029,0.0289,0.0288,0.0288,0.0287,0,-0.0693,-0.0717,-0.0765,-0.08,-0.086,-0.0849,-0.087,-0.081,-0.0745,-0.0495,-0.0387,-0.0047,0.0115,0.0297,0.0549,0.0658,0.0676,0.0705,0.0749,0.0769,0.0561,0.0621,0.0735,0.0735,0.0735,0.0735,0.0735,0.0734,-0.0735,-0.0788,-0.0805,-0.0903,-0.0931,-0.0954,-0.0944,-0.0772,-0.0546,-0.0078,0.0329,0.0561,0.0663,0.0767,0.0948,0.0962,0.1033,0.1009,0.1014,0.0912,0.0886,0.0862,0.0929,0.1105,0.1106,0.1261,0.1262,0.1263]}],[{"header":{"parameterUnit":"m.s-1","parameterCategory":2,"la1":30.2991,"la2":30.254,"lo1":-89.0895,"lo2":-89.0444,"dx":0.0017,"dy":0.0017,"nx":28,"ny":28,"refTime":"2022-11-05T21:00:00:Z","depth":"2","parameterNumber":2,"parameterNumberName":"U-component_of_CURRENTS"},"data":[0,0,0,0,0,0,0,0,0,0,0,0,0,0,0,0,0,0,0,0,0,0,0,0,0,0,0,0,0,0,0,0,0,0,0,0,0,0,0,0,0,0,0,0,0,0,0,0,0,0,0,0,0,0,0,0,0,0,-0.1268,-0.1266,0,-0.1122,-0.1121,-0.112,-0.1122,-0.1124,-0.1125,-0.1126,-0.1185,-0.1185,-0.1186,0,0,0,0,0,0,0,0,0,0,0,0,0,-0.1337,-0.1338,-0.1268,-0.1265,-0.1263,-0.1123,-0.1121,-0.112,-0.1122,-0.1124,-0.1125,-0.1127,-0.1185,-0.1185,-0.1186,0,0,0,0,0,0,0,0,0,0,0,0,0,-0.1268,-0.1338,-0.1268,-0.1242,-0.1237,-0.1123,-0.1121,-0.112,-0.1122,-0.1124,-0.1126,-0.1128,-0.1185,-0.1185,-0.1186,-0.1151,0,0,-0.1187,-0.1188,0,0,0,0,0,0,0,0,-0.1273,-0.1267,-0.1248,-0.1243,-0.1238,-0.1136,-0.1166,-0.1138,-0.1121,-0.1173,-0.1126,-0.1128,-0.1181,-0.1182,-0.1158,-0.1153,-0.1156,-0.1187,-0.1188,-0.1188,-0.1188,0,0,0,0,0,0,0,-0.1278,-0.1272,-0.1218,-0.1245,-0.1239,-0.1164,-0.116,-0.116,-0.1178,-0.1169,-0.1167,-0.1139,-0.1181,-0.1157,-0.116,-0.1157,-0.1187,-0.1188,-0.1188,-0.1188,-0.1265,-0.1267,0,0,0,0,0,0,-0.129,-0.1278,-0.1222,-0.1213,-0.1252,-0.1162,-0.1157,-0.1173,-0.1173,-0.1171,-0.1137,-0.1139,-0.1155,-0.1159,-0.1162,-0.121,-0.1188,-0.1188,-0.1189,-0.1263,-0.1265,-0.1267,0,0,0,0,0,0,-0.1293,-0.1288,-0.1228,-0.1233,-0.1219,-0.116,-0.1177,-0.1169,-0.1165,-0.1145,-0.115,-0.1144,-0.1157,-0.1161,-0.1213,-0.121,-0.1189,-0.1189,-0.1261,-0.1264,-0.1266,-0.1249,0,0,0,0,0,0,-0.1296,-0.1292,-0.1299,-0.1236,-0.1219,-0.1179,-0.1174,-0.1164,-0.114,-0.1142,-0.1152,-0.1158,-0.1159,-0.1212,-0.1213,-0.121,-0.119,-0.1259,-0.1262,-0.1265,-0.1248,-0.1251,-0.1254,0,0,0,0,0,-0.13,-0.1253,-0.1302,-0.1293,-0.1237,-0.1178,-0.1165,-0.113,-0.1139,-0.1137,-0.1171,-0.1159,-0.1233,-0.1214,-0.1215,-0.1211,-0.1257,-0.1261,-0.1265,-0.1246,-0.125,-0.1254,0,0,0,0,0,0,-0.1277,-0.1248,-0.1299,-0.1253,-0.1248,-0.1177,-0.1136,-0.1139,-0.1154,-0.1174,-0.1179,-0.1187,-0.1226,-0.1235,-0.1213,-0.125,-0.1243,-0.1247,-0.1228,-0.1232,-0.1235,-0.121,-0.119,0,0,0,0,0,-0.1287,-0.1251,-0.1253,-0.1219,-0.1225,-0.1204,-0.1172,-0.1174,-0.1169,-0.1175,-0.1184,-0.1211,-0.1233,-0.125,-0.1267,-0.1284,-0.1299,-0.1288,-0.1291,-0.1293,-0.1278,-0.1285,-0.1286,-0.128,-0.128,-0.128,0,0,-0.1256,-0.124,-0.1218,-0.1212,-0.1205,-0.1214,-0.1192,-0.116,-0.1171,-0.1182,-0.1202,-0.122,-0.1244,-0.1268,-0.1285,-0.128,-0.1318,-0.1298,-0.1299,-0.1283,-0.1289,-0.1289,-0.1289,-0.1282,-0.1282,-0.1281,0,0,-0.1194,-0.1198,-0.1185,-0.1193,-0.1199,-0.1189,-0.1198,-0.1181,-0.1185,-0.1217,-0.1228,-0.1245,-0.1284,-0.1278,-0.1288,-0.1319,-0.1333,-0.1342,-0.133,-0.1337,-0.1336,-0.1335,-0.141,-0.1416,-0.1343,-0.1343,-0.1343,0,-0.1177,-0.1184,-0.1166,-0.1187,-0.1175,-0.1197,-0.1213,-0.1213,-0.1216,-0.1211,-0.124,-0.1266,-0.1277,-0.1283,-0.13,-0.1316,-0.1358,-0.1306,-0.1336,-0.1335,-0.1335,-0.141,-0.1417,-0.1342,-0.1342,-0.1342,-0.1342,0,-0.1147,-0.1169,-0.1148,-0.1205,-0.1192,-0.1187,-0.1214,-0.122,-0.1237,-0.1237,-0.1255,-0.1273,-0.1286,-0.1291,-0.1307,-0.1307,-0.1356,-0.1335,-0.1314,-0.1333,-0.1414,-0.1421,-0.1342,-0.1342,-0.1342,-0.1342,0,0,-0.1082,-0.1125,-0.1131,-0.1162,-0.1205,-0.1176,-0.1208,-0.1213,-0.1219,-0.1244,-0.1245,-0.126,-0.1265,-0.1278,-0.1289,-0.1287,-0.1331,-0.1317,-0.1317,-0.137,-0.1415,-0.1362,-0.1365,-0.1322,-0.1322,-0.1321,-0.1492,0,-0.1092,-0.1113,-0.1132,-0.1152,-0.1169,-0.1192,-0.1202,-0.121,-0.1231,-0.1244,-0.1248,-0.1276,-0.1267,-0.1292,-0.1283,-0.1324,-0.1342,-0.1291,-0.1406,-0.141,-0.134,-0.1366,-0.1133,-0.1255,-0.1499,-0.15,-0.1501,0,-0.1096,-0.1096,-0.1129,-0.1129,-0.1139,-0.1158,-0.1154,-0.1166,-0.1196,-0.1222,-0.1243,-0.1278,-0.13,-0.1292,-0.1348,-0.133,-0.137,-0.1392,-0.1398,-0.1346,-0.1366,-0.1267,-0.1258,-0.1513,-0.1512,-0.1511,-0.151,0,-0.1057,-0.1085,-0.1094,-0.1105,-0.1132,-0.1135,-0.1132,-0.1156,-0.1168,-0.1223,-0.1275,-0.1293,-0.1361,-0.1368,-0.1439,-0.1409,-0.1516,-0.1478,-0.1471,-0.1472,-0.1289,-0.1271,-0.15,-0.15,-0.1499,-0.1499,-0.1498,0,-0.1053,-0.1057,-0.1079,-0.1093,-0.1056,-0.1095,-0.1098,-0.1098,-0.1165,-0.1194,-0.1266,-0.1327,-0.1384,-0.1463,-0.1472,-0.1515,-0.1553,-0.1472,-0.1491,-0.1286,-0.1267,-0.1484,-0.148,-0.1505,-0.1504,-0.1503,-0.1501,0,-0.1037,-0.1069,-0.1061,-0.1071,-0.1057,-0.1028,-0.1058,-0.1079,-0.1159,-0.1219,-0.1257,-0.1394,-0.1508,-0.1573,-0.1641,-0.1589,-0.1608,-0.1614,-0.1409,-0.1396,-0.1561,-0.1555,-0.1609,-0.1608,-0.1608,-0.1607,-0.1606,0,-0.1082,-0.1076,-0.1019,-0.1018,-0.1034,-0.1016,-0.1019,-0.105,-0.1098,-0.1247,-0.1283,-0.1455,-0.1527,-0.1641,-0.1586,-0.1607,-0.1677,-0.1417,-0.1261,-0.1548,-0.1563,-0.1558,-0.1553,-0.1061,-0.1056,-0.1052,-0.1049,0,-0.1128,-0.108,-0.1073,-0.1011,-0.1004,-0.0986,-0.1006,-0.1042,-0.1121,-0.1191,-0.1324,-0.1395,-0.1487,-0.1392,-0.1429,-0.1396,-0.1377,-0.1333,-0.168,-0.1052,-0.1039,-0.1051,-0.1063,-0.1013,-0.1016,-0.1019,-0.1021,-0.1022,-0.1159,-0.1147,-0.1094,-0.1017,-0.1025,-0.1018,-0.0977,-0.1043,-0.1087,-0.1157,-0.1264,-0.1263,-0.1209,-0.1133,-0.1106,-0.1095,-0.1196,-0.1082,-0.1091,-0.1105,-0.0993,-0.0976,-0.0924,-0.0927,-0.0929,-0.0932,-0.0934,0,-0.1123,-0.1106,-0.1103,-0.1035,-0.1021,-0.0983,-0.1003,-0.0961,-0.0974,-0.1024,-0.1063,-0.0888,-0.0795,-0.082,-0.0687,-0.066,-0.0632,-0.0665,-0.0577,-0.0611,-0.0642,-0.0504,-0.0307,-0.0306,-0.0305,-0.0304,0,0,-0.1111,-0.1052,-0.1025,-0.0992,-0.0994,-0.0899,-0.0881,-0.0819,-0.0802,-0.0785,-0.0723,-0.0726,-0.0709,-0.0473,-0.0424,-0.0354,-0.0499,-0.0339,-0.0822,-0.0749,-0.0779,-0.0842,-0.0662,0,0,0,0,0]},{"header":{"parameterUnit":"m.s-1","parameterCategory":2,"la1":30.2991,"la2":30.254,"lo1":-89.0895,"lo2":-89.0444,"dx":0.0017,"dy":0.0017,"nx":28,"ny":28,"refTime":"2022-11-05T21:00:00:Z","depth":"2","parameterNumber":3,"parameterNumberName":"V-component_of_CURRENTS"},"data":[0,0,0,0,0,0,0,0,0,0,0,0,0,0,0,0,0,0,0,0,0,0,0,0,0,0,0,0,0,0,0,0,0,0,0,0,0,0,0,0,0,0,0,0,0,0,0,0,0,0,0,0,0,0,0,0,0,0,-0.0219,-0.0218,0,-0.0151,-0.0151,-0.015,-0.015,-0.0151,-0.0152,-0.0153,-0.0075,-0.0073,-0.007,0,0,0,0,0,0,0,0,0,0,0,0,0,-0.0285,-0.0284,-0.0219,-0.0218,-0.0217,-0.0151,-0.0151,-0.015,-0.015,-0.0151,-0.0152,-0.0153,-0.0076,-0.0073,-0.007,0,0,0,0,0,0,0,0,0,0,0,0,0,-0.0242,-0.0284,-0.0219,-0.0209,-0.0207,-0.0152,-0.015,-0.0149,-0.015,-0.0151,-0.0152,-0.0153,-0.0077,-0.0073,-0.0069,-0.0019,0,0,-0.0056,-0.0054,0,0,0,0,0,0,0,0,-0.0244,-0.0239,-0.0211,-0.0209,-0.0207,-0.016,-0.0145,-0.0105,-0.015,-0.0172,-0.0153,-0.0154,-0.0101,-0.0095,-0.0081,-0.0015,-0.0012,-0.0056,-0.0053,-0.0052,-0.005,0,0,0,0,0,0,0,-0.0247,-0.0242,-0.0193,-0.021,-0.0207,-0.0186,-0.0182,-0.0138,-0.0131,-0.017,-0.017,-0.0161,-0.01,-0.0085,-0.0079,-0.0011,-0.0056,-0.0052,-0.005,-0.0048,0.0078,0.0078,0,0,0,0,0,0,-0.0256,-0.0245,-0.0195,-0.0191,-0.0228,-0.0184,-0.0179,-0.0174,-0.0132,-0.0126,-0.016,-0.0161,-0.0092,-0.0084,-0.0076,-0.002,-0.0052,-0.0048,-0.0045,0.0077,0.0078,0.0079,0,0,0,0,0,0,-0.0257,-0.0252,-0.0198,-0.0215,-0.0207,-0.0182,-0.0176,-0.0172,-0.0164,-0.0124,-0.0119,-0.0157,-0.0092,-0.0082,-0.0044,-0.0017,-0.0046,-0.0042,0.0076,0.0077,0.0078,0.0096,0,0,0,0,0,0,-0.026,-0.0253,-0.0256,-0.0216,-0.0206,-0.0164,-0.0175,-0.017,-0.0156,-0.0157,-0.0118,-0.0112,-0.0093,-0.0051,-0.004,-0.0012,-0.0039,0.0075,0.0076,0.0078,0.0094,0.0098,0.01,0,0,0,0,0,-0.0262,-0.0267,-0.0256,-0.025,-0.021,-0.0163,-0.0156,-0.0142,-0.0154,-0.0142,-0.0124,-0.0114,-0.0034,-0.0046,-0.0034,-0.0004,0.0074,0.0076,0.0078,0.0093,0.0097,0.01,0,0,0,0,0,0,-0.0304,-0.0265,-0.0254,-0.0248,-0.0206,-0.0163,-0.0156,-0.0143,-0.0118,-0.0125,-0.0099,-0.009,-0.0047,-0.0029,-0.0044,0.0034,0.0021,0.0025,0.0028,0.0033,0.0035,0.0034,-0.0035,0,0,0,0,0,-0.0311,-0.0301,-0.0253,-0.0247,-0.0228,-0.0191,-0.0174,-0.0156,-0.0127,-0.0118,-0.0093,-0.0065,-0.0026,-0.0003,0.003,0.008,0.0087,0.0104,0.0107,0.011,0.0116,0.0153,0.016,0.0085,0.0085,0.0085,0,0,-0.0326,-0.0303,-0.0299,-0.0254,-0.0225,-0.0182,-0.0184,-0.0154,-0.0119,-0.0111,-0.0072,-0.0052,-0.0013,0.0037,0.0058,0.0054,0.0131,0.0112,0.0114,0.0119,0.0156,0.0163,0.017,0.0086,0.0086,0.0085,0,0,-0.0336,-0.0328,-0.0312,-0.0272,-0.0221,-0.0189,-0.018,-0.0132,-0.0116,-0.0066,-0.0057,-0.002,0.0034,0.0074,0.01,0.0144,0.0143,0.0144,0.0168,0.0204,0.0211,0.0217,0.0217,0.0223,0.015,0.015,0.0151,0,-0.0358,-0.033,-0.0299,-0.026,-0.0238,-0.0191,-0.0161,-0.0116,-0.0064,-0.0058,-0.0054,0.0018,0.0061,0.0122,0.0141,0.0155,0.0151,0.0151,0.0208,0.0214,0.022,0.022,0.0226,0.0152,0.0151,0.0151,0.0151,0,-0.0334,-0.0313,-0.0301,-0.0237,-0.0205,-0.0174,-0.0108,-0.0082,-0.0063,-0.0028,0.0018,0.0076,0.0114,0.0141,0.0164,0.0224,0.0198,0.0203,0.0198,0.0229,0.0226,0.0232,0.0153,0.0153,0.0152,0.0152,0,0,-0.0386,-0.0304,-0.0301,-0.0285,-0.0198,-0.0179,-0.0117,-0.0067,-0.0058,0.0014,0.003,0.013,0.0141,0.0172,0.0205,0.0252,0.0303,0.0246,0.0247,0.0243,0.0346,0.0319,0.0323,0.0307,0.0309,0.031,0.032,0,-0.0382,-0.0336,-0.0286,-0.0247,-0.0225,-0.0171,-0.0132,-0.0081,-0.0037,-0.0004,0.0072,0.0113,0.0162,0.0174,0.0237,0.0284,0.0322,0.0297,0.0319,0.0319,0.0291,0.0331,0.0327,0.0336,0.0326,0.0327,0.0328,0,-0.0373,-0.035,-0.0319,-0.0289,-0.0278,-0.0241,-0.0215,-0.0171,-0.0095,-0.0064,0.0005,0.006,0.0162,0.0188,0.0304,0.0277,0.0316,0.0353,0.0354,0.033,0.0305,0.0308,0.0347,0.0338,0.0337,0.0337,0.0336,0,-0.0447,-0.0384,-0.0379,-0.0355,-0.0294,-0.029,-0.0267,-0.0204,-0.018,-0.01,-0.0067,0.0039,0.0105,0.0182,0.0283,0.0291,0.0377,0.0396,0.0403,0.04,0.0404,0.0399,0.0466,0.0466,0.0466,0.0466,0.0466,0,-0.0473,-0.0474,-0.0416,-0.0411,-0.0423,-0.0365,-0.0366,-0.0328,-0.026,-0.0223,-0.0106,-0.0042,0.0111,0.0188,0.026,0.0346,0.0362,0.0415,0.0413,0.0407,0.0402,0.0413,0.0407,0.0467,0.0467,0.0466,0.0466,0,-0.0552,-0.0508,-0.0502,-0.0458,-0.0453,-0.0467,-0.0422,-0.0413,-0.0342,-0.0282,-0.0249,-0.009,0.0009,0.0116,0.0238,0.0321,0.0391,0.0404,0.0367,0.0362,0.0393,0.0388,0.0439,0.0438,0.0437,0.0437,0.0437,0,-0.0581,-0.058,-0.0555,-0.055,-0.0528,-0.0529,-0.0525,-0.0467,-0.0435,-0.0306,-0.0276,-0.0156,-0.005,0.0101,0.022,0.0312,0.0331,0.0382,0.0425,0.0404,0.0397,0.0392,0.0387,0.0428,0.0427,0.0427,0.0427,0,-0.0632,-0.0624,-0.0618,-0.062,-0.0613,-0.0616,-0.0596,-0.0579,-0.0495,-0.0408,-0.0291,-0.0199,-0.0046,0.0093,0.0206,0.0271,0.0372,0.0378,0.0383,0.0429,0.0394,0.0386,0.0382,0.0424,0.0424,0.0425,0.0425,0.0425,-0.0664,-0.0679,-0.0671,-0.0676,-0.0681,-0.0695,-0.0694,-0.0635,-0.0579,-0.0427,-0.0324,-0.0159,-0.0009,0.0163,0.0238,0.031,0.033,0.0403,0.0404,0.0406,0.0397,0.0362,0.0383,0.0383,0.0383,0.0383,0.0383,0,-0.0688,-0.0711,-0.0722,-0.0737,-0.0768,-0.0754,-0.0733,-0.07,-0.0622,-0.0441,-0.0293,-0.01,0.0055,0.0149,0.0261,0.0363,0.0379,0.0379,0.0394,0.0397,0.0399,0.039,0.0374,0.0374,0.0374,0.0374,0,0,-0.0704,-0.0728,-0.0743,-0.0808,-0.0827,-0.0844,-0.083,-0.075,-0.0627,-0.0429,-0.027,-0.006,0.0071,0.0166,0.0268,0.0309,0.0333,0.0318,0.032,0.0329,0.033,0.0411,0.04,0,0,0,0,0]}],[{"header":{"parameterUnit":"m.s-1","parameterCategory":2,"la1":30.2991,"la2":30.254,"lo1":-89.0895,"lo2":-89.0444,"dx":0.0017,"dy":0.0017,"nx":28,"ny":28,"refTime":"2022-11-05T21:00:00:Z","depth":"4","parameterNumber":2,"parameterNumberName":"U-component_of_CURRENTS"},"data":[0,0,0,0,0,0,0,0,0,0,0,0,0,0,0,0,0,0,0,0,0,0,0,0,0,0,0,0,0,0,0,0,0,0,0,0,0,0,0,0,0,0,0,0,0,0,0,0,0,0,0,0,0,0,0,0,0,0,-0.0302,-0.0302,0,-0.0351,-0.0352,-0.0352,-0.0367,-0.0367,-0.0367,-0.0367,-0.044,-0.0442,-0.0444,0,0,0,0,0,0,0,0,0,0,0,0,0,-0.0271,-0.0272,-0.0302,-0.0302,-0.0303,-0.0351,-0.0352,-0.0353,-0.0367,-0.0367,-0.0367,-0.0367,-0.0439,-0.0442,-0.0445,0,0,0,0,0,0,0,0,0,0,0,0,0,-0.0298,-0.0272,-0.0302,-0.0317,-0.0319,-0.0351,-0.0352,-0.0353,-0.0367,-0.0367,-0.0367,-0.0367,-0.0439,-0.0442,-0.0445,-0.047,0,0,-0.0455,-0.0456,0,0,0,0,0,0,0,0,-0.0297,-0.0299,-0.0314,-0.0316,-0.0318,-0.0353,-0.0368,-0.0394,-0.0368,-0.0348,-0.0367,-0.0366,-0.0414,-0.0419,-0.0428,-0.0474,-0.0477,-0.0455,-0.0457,-0.0458,-0.0459,0,0,0,0,0,0,0,-0.0295,-0.0298,-0.0321,-0.0315,-0.0317,-0.0339,-0.0342,-0.0373,-0.0382,-0.035,-0.0351,-0.0358,-0.0415,-0.0425,-0.043,-0.0478,-0.0455,-0.0458,-0.046,-0.0461,-0.0553,-0.0554,0,0,0,0,0,0,-0.0288,-0.0296,-0.0319,-0.0322,-0.0307,-0.034,-0.0343,-0.0342,-0.0381,-0.0387,-0.0358,-0.0358,-0.0419,-0.0426,-0.0433,-0.0473,-0.0458,-0.0461,-0.0463,-0.0553,-0.0553,-0.0554,0,0,0,0,0,0,-0.0287,-0.0289,-0.0317,-0.0311,-0.0316,-0.034,-0.0339,-0.0343,-0.0356,-0.0387,-0.0393,-0.0367,-0.0419,-0.0428,-0.046,-0.0476,-0.0463,-0.0466,-0.0552,-0.0553,-0.0553,-0.0549,0,0,0,0,0,0,-0.0285,-0.0288,-0.0289,-0.031,-0.0316,-0.0338,-0.034,-0.0344,-0.0361,-0.0362,-0.0398,-0.0404,-0.042,-0.0455,-0.0463,-0.048,-0.0468,-0.0551,-0.0552,-0.0553,-0.0549,-0.055,-0.0551,0,0,0,0,0,-0.0284,-0.0286,-0.0288,-0.0291,-0.0314,-0.0338,-0.0344,-0.0359,-0.0361,-0.0369,-0.039,-0.0403,-0.0467,-0.0458,-0.0468,-0.0486,-0.0551,-0.0552,-0.0553,-0.0548,-0.055,-0.0551,0,0,0,0,0,0,-0.0274,-0.0288,-0.0291,-0.0297,-0.0316,-0.0341,-0.0351,-0.0362,-0.0385,-0.0387,-0.0412,-0.042,-0.045,-0.047,-0.0459,-0.0514,-0.0511,-0.0514,-0.0504,-0.0506,-0.0507,-0.0513,-0.0471,0,0,0,0,0,-0.0271,-0.0275,-0.0294,-0.03,-0.0308,-0.033,-0.0342,-0.0355,-0.0377,-0.0387,-0.0412,-0.0439,-0.0463,-0.0485,-0.0507,-0.0544,-0.0549,-0.0561,-0.0562,-0.0563,-0.0574,-0.0584,-0.0587,-0.0558,-0.0558,-0.0558,0,0,-0.0271,-0.0278,-0.0282,-0.0299,-0.0313,-0.0338,-0.0336,-0.0357,-0.0382,-0.0393,-0.0431,-0.0442,-0.0471,-0.0504,-0.0521,-0.0524,-0.0571,-0.0564,-0.0565,-0.0576,-0.0586,-0.0589,-0.0591,-0.0558,-0.0558,-0.0558,0,0,-0.0274,-0.0276,-0.0282,-0.0302,-0.0325,-0.0343,-0.0349,-0.0377,-0.039,-0.0426,-0.0434,-0.0452,-0.0502,-0.0519,-0.0536,-0.056,-0.057,-0.057,-0.0592,-0.0601,-0.0603,-0.0606,-0.0603,-0.0605,-0.0579,-0.0579,-0.0579,0,-0.0274,-0.0286,-0.029,-0.0309,-0.0335,-0.0346,-0.0375,-0.0392,-0.0428,-0.0446,-0.044,-0.0497,-0.051,-0.0553,-0.0555,-0.0562,-0.0567,-0.0582,-0.0602,-0.0604,-0.0606,-0.0603,-0.0605,-0.0579,-0.0579,-0.0579,-0.0579,0,-0.0283,-0.0304,-0.0312,-0.0341,-0.0367,-0.0392,-0.0421,-0.0444,-0.046,-0.0479,-0.0515,-0.0526,-0.0563,-0.0564,-0.0569,-0.0598,-0.0595,-0.0593,-0.0596,-0.0609,-0.0605,-0.0607,-0.0579,-0.0579,-0.0579,-0.0579,0,0,-0.0256,-0.0309,-0.0312,-0.0347,-0.0391,-0.0417,-0.0456,-0.0497,-0.0526,-0.0545,-0.058,-0.0603,-0.0601,-0.062,-0.0621,-0.0628,-0.0632,-0.0621,-0.0622,-0.0614,-0.0648,-0.0616,-0.0615,-0.0635,-0.0635,-0.0636,-0.0633,0,-0.0266,-0.031,-0.0336,-0.04,-0.0434,-0.0472,-0.0511,-0.055,-0.0573,-0.0605,-0.0611,-0.0638,-0.0626,-0.0637,-0.0643,-0.0634,-0.0641,-0.0632,-0.0642,-0.0642,-0.0608,-0.0618,-0.0638,-0.0635,-0.0636,-0.0636,-0.0637,0,-0.026,-0.0303,-0.0357,-0.0446,-0.0463,-0.0505,-0.0575,-0.0611,-0.065,-0.0665,-0.0688,-0.069,-0.0705,-0.0683,-0.0689,-0.0686,-0.0673,-0.066,-0.066,-0.0637,-0.0615,-0.0624,-0.0641,-0.0641,-0.064,-0.064,-0.064,0,-0.0232,-0.0318,-0.0366,-0.0396,-0.0489,-0.0529,-0.0577,-0.0629,-0.066,-0.0699,-0.0714,-0.0736,-0.0736,-0.0735,-0.0707,-0.0703,-0.07,-0.069,-0.0652,-0.0648,-0.0679,-0.0677,-0.0699,-0.0699,-0.0699,-0.0699,-0.0699,0,-0.0221,-0.0264,-0.0364,-0.0392,-0.0473,-0.0534,-0.0599,-0.0642,-0.0691,-0.0722,-0.0741,-0.075,-0.0749,-0.0743,-0.0724,-0.0693,-0.0716,-0.066,-0.065,-0.0676,-0.0674,-0.068,-0.0678,-0.0698,-0.0698,-0.0699,-0.0699,0,-0.0164,-0.0224,-0.0302,-0.0417,-0.0457,-0.0513,-0.0614,-0.0654,-0.0698,-0.0737,-0.0748,-0.0761,-0.0747,-0.0742,-0.0724,-0.0704,-0.0683,-0.0668,-0.0692,-0.0682,-0.0621,-0.0619,-0.0628,-0.0627,-0.0626,-0.0625,-0.0624,0,-0.0138,-0.0163,-0.0302,-0.0364,-0.042,-0.0511,-0.0567,-0.0644,-0.0683,-0.0732,-0.0743,-0.0744,-0.0745,-0.0686,-0.0687,-0.0663,-0.0653,-0.0649,-0.0641,-0.0626,-0.0616,-0.0615,-0.0614,-0.0623,-0.0623,-0.0623,-0.0622,0,-0.0093,-0.0135,-0.0205,-0.0337,-0.0424,-0.0507,-0.0591,-0.0615,-0.0692,-0.0728,-0.0715,-0.07,-0.068,-0.0651,-0.0639,-0.062,-0.0658,-0.064,-0.0641,-0.0633,-0.062,-0.0611,-0.0611,-0.0619,-0.062,-0.062,-0.062,0,-0.0075,-0.0104,-0.0203,-0.0327,-0.0424,-0.0497,-0.0542,-0.0595,-0.0636,-0.069,-0.0673,-0.0665,-0.0666,-0.0628,-0.0615,-0.0599,-0.0589,-0.058,-0.0584,-0.0588,-0.0577,-0.0555,-0.053,0,0,0,0,0,-0.007,-0.0101,-0.0192,-0.0333,-0.0419,-0.0477,-0.0564,-0.0603,-0.0665,-0.0643,-0.0661,-0.0637,-0.0605,-0.0592,-0.0564,-0.0609,-0.0602,-0.0578,-0.0597,-0.0602,-0.0605,-0.0597,0,0,0,0,0,0,-0.008,-0.0134,-0.0182,-0.031,-0.0387,-0.0479,-0.0529,-0.0569,-0.0562,-0.0604,-0.0575,-0.0603,-0.0566,-0.0595,-0.0544,-0.0547,-0.0552,-0.0577,-0.0577,-0.06,-0.0603,-0.0606,-0.0598,0,0,0,0,0]},{"header":{"parameterUnit":"m.s-1","parameterCategory":2,"la1":30.2991,"la2":30.254,"lo1":-89.0895,"lo2":-89.0444,"dx":0.0017,"dy":0.0017,"nx":28,"ny":28,"refTime":"2022-11-05T21:00:00:Z","depth":"4","parameterNumber":3,"parameterNumberName":"V-component_of_CURRENTS"},"data":[0,0,0,0,0,0,0,0,0,0,0,0,0,0,0,0,0,0,0,0,0,0,0,0,0,0,0,0,0,0,0,0,0,0,0,0,0,0,0,0,0,0,0,0,0,0,0,0,0,0,0,0,0,0,0,0,0,0,-0.0343,-0.0343,0,-0.0351,-0.0351,-0.0351,-0.0334,-0.0334,-0.0333,-0.0333,-0.0323,-0.0324,-0.0324,0,0,0,0,0,0,0,0,0,0,0,0,0,-0.0301,-0.0301,-0.0343,-0.0343,-0.0343,-0.0351,-0.0351,-0.0351,-0.0334,-0.0334,-0.0333,-0.0332,-0.0323,-0.0324,-0.0324,0,0,0,0,0,0,0,0,0,0,0,0,0,-0.0315,-0.0302,-0.0343,-0.0336,-0.0335,-0.0351,-0.0351,-0.0351,-0.0334,-0.0334,-0.0333,-0.0332,-0.0323,-0.0324,-0.0324,-0.0342,0,0,-0.0325,-0.0325,0,0,0,0,0,0,0,0,-0.0314,-0.0316,-0.0337,-0.0336,-0.0336,-0.0341,-0.0333,-0.0347,-0.0335,-0.0335,-0.0333,-0.0332,-0.0329,-0.0328,-0.0331,-0.0341,-0.0341,-0.0325,-0.0325,-0.0325,-0.0326,0,0,0,0,0,0,0,-0.0313,-0.0316,-0.0346,-0.0337,-0.0337,-0.0328,-0.0329,-0.0335,-0.0335,-0.0334,-0.0333,-0.0335,-0.0328,-0.0331,-0.0331,-0.0341,-0.0325,-0.0325,-0.0326,-0.0326,-0.0345,-0.0345,0,0,0,0,0,0,-0.0314,-0.0315,-0.0346,-0.0346,-0.0323,-0.033,-0.0331,-0.034,-0.0336,-0.0334,-0.0336,-0.0334,-0.0331,-0.0331,-0.0331,-0.0332,-0.0325,-0.0326,-0.0326,-0.0345,-0.0345,-0.0345,0,0,0,0,0,0,-0.0314,-0.0317,-0.0345,-0.033,-0.0333,-0.0331,-0.0342,-0.0341,-0.0345,-0.0337,-0.0335,-0.0341,-0.033,-0.033,-0.0333,-0.0332,-0.0326,-0.0326,-0.0344,-0.0345,-0.0345,-0.0346,0,0,0,0,0,0,-0.0312,-0.0317,-0.0327,-0.0331,-0.0334,-0.0356,-0.0342,-0.0341,-0.0347,-0.0346,-0.0341,-0.0339,-0.033,-0.0333,-0.0334,-0.0332,-0.0327,-0.0344,-0.0344,-0.0345,-0.0346,-0.0347,-0.0347,0,0,0,0,0,-0.0311,-0.0329,-0.0328,-0.0332,-0.0347,-0.0357,-0.0358,-0.0353,-0.0349,-0.0354,-0.0347,-0.0339,-0.0337,-0.0334,-0.0335,-0.0333,-0.0344,-0.0344,-0.0345,-0.0345,-0.0346,-0.0347,0,0,0,0,0,0,-0.0318,-0.0329,-0.0328,-0.0349,-0.0352,-0.0354,-0.0362,-0.0359,-0.036,-0.0358,-0.0347,-0.0345,-0.0347,-0.0345,-0.0341,-0.0341,-0.0338,-0.0339,-0.0338,-0.0339,-0.034,-0.0317,-0.0327,0,0,0,0,0,-0.0324,-0.034,-0.0345,-0.0362,-0.0365,-0.0365,-0.037,-0.0367,-0.0367,-0.0367,-0.0362,-0.0357,-0.0352,-0.0349,-0.0349,-0.0352,-0.032,-0.0351,-0.0352,-0.0353,-0.0335,-0.0283,-0.0277,-0.0347,-0.0347,-0.0347,0,0,-0.0332,-0.0341,-0.035,-0.0364,-0.0368,-0.0372,-0.0366,-0.0377,-0.0373,-0.0367,-0.0366,-0.0365,-0.0356,-0.0354,-0.0354,-0.0349,-0.0319,-0.0353,-0.0354,-0.0335,-0.0283,-0.0276,-0.0269,-0.0348,-0.0348,-0.0348,0,0,-0.0354,-0.0363,-0.0381,-0.0383,-0.0391,-0.0387,-0.0391,-0.0395,-0.0388,-0.0393,-0.0381,-0.0372,-0.0379,-0.0357,-0.035,-0.0356,-0.0328,-0.0368,-0.0347,-0.0298,-0.0291,-0.0284,-0.0242,-0.0232,-0.0364,-0.0364,-0.0364,0,-0.0361,-0.0382,-0.0387,-0.0399,-0.0397,-0.0393,-0.0399,-0.0395,-0.0397,-0.0384,-0.0393,-0.0373,-0.0372,-0.0341,-0.0344,-0.0354,-0.0326,-0.0344,-0.0296,-0.0289,-0.0282,-0.024,-0.0229,-0.0364,-0.0364,-0.0364,-0.0364,0,-0.0388,-0.0403,-0.0413,-0.0421,-0.042,-0.0427,-0.0415,-0.0411,-0.0405,-0.0393,-0.0372,-0.0365,-0.0343,-0.035,-0.035,-0.0305,-0.0301,-0.0306,-0.0289,-0.0274,-0.0233,-0.022,-0.0364,-0.0364,-0.0364,-0.0364,0,0,-0.0399,-0.0428,-0.0429,-0.0431,-0.0429,-0.0429,-0.0416,-0.0396,-0.0378,-0.0373,-0.034,-0.0331,-0.0318,-0.0307,-0.0303,-0.0264,-0.0203,-0.0266,-0.0263,-0.0214,-0.0094,-0.0101,-0.0088,-0.0198,-0.0196,-0.0194,-0.0086,0,-0.0413,-0.0445,-0.0445,-0.0451,-0.046,-0.0438,-0.0424,-0.0401,-0.0381,-0.0351,-0.0318,-0.0299,-0.0304,-0.0296,-0.0253,-0.0223,-0.0169,-0.0231,-0.0122,-0.0119,-0.0118,-0.0074,-0.0187,-0.0077,-0.0074,-0.0072,-0.0071,0,-0.0428,-0.0447,-0.0471,-0.0461,-0.0459,-0.0457,-0.0416,-0.0402,-0.0352,-0.0335,-0.0292,-0.0271,-0.0216,-0.0227,-0.0127,-0.0168,-0.0121,-0.0092,-0.0087,-0.0079,-0.0102,-0.0093,-0.0048,-0.005,-0.0052,-0.0053,-0.0054,0,-0.0432,-0.045,-0.0471,-0.0471,-0.0469,-0.0458,-0.0442,-0.04,-0.0377,-0.032,-0.0296,-0.0229,-0.0198,-0.0126,-0.007,-0.0093,0.0043,0.0019,0.0069,0.0068,0.0042,0.0034,0.012,0.012,0.012,0.0119,0.0119,0,-0.0439,-0.0449,-0.0478,-0.049,-0.0485,-0.0472,-0.045,-0.0419,-0.0375,-0.0338,-0.029,-0.0241,-0.017,-0.0093,-0.004,0.0055,0.0075,0.0096,0.0106,0.0035,0.0025,0.005,0.0041,0.0123,0.0123,0.0122,0.0121,0,-0.0441,-0.0467,-0.0488,-0.0499,-0.0496,-0.0492,-0.0464,-0.0447,-0.0401,-0.0348,-0.0329,-0.024,-0.0139,-0.006,0.0057,0.009,0.0178,0.0211,0.0139,0.0139,0.0162,0.0151,0.0281,0.0282,0.0283,0.0283,0.0284,0,-0.0444,-0.0465,-0.0499,-0.0511,-0.0519,-0.0512,-0.0506,-0.0466,-0.0443,-0.0341,-0.0314,-0.0204,-0.0139,0.004,0.0103,0.0227,0.0233,0.0276,0.0218,0.0188,0.0185,0.0172,0.016,0.0285,0.0285,0.0286,0.0286,0,-0.0438,-0.0464,-0.0485,-0.0525,-0.0535,-0.0539,-0.0523,-0.0504,-0.0443,-0.0399,-0.0268,-0.0166,-0.0047,0.006,0.0158,0.0238,0.024,0.0284,0.0282,0.0228,0.0194,0.0187,0.0175,0.0288,0.0288,0.0288,0.0288,0,-0.0433,-0.0441,-0.0486,-0.0517,-0.0545,-0.056,-0.0546,-0.0493,-0.0453,-0.0333,-0.0285,-0.0143,-0.0057,0.0069,0.0158,0.0235,0.0239,0.0244,0.0244,0.0242,0.0181,0.0129,0.0238,0,0,0,0,0,-0.0418,-0.0431,-0.0465,-0.0511,-0.0555,-0.0572,-0.0555,-0.0537,-0.0472,-0.0373,-0.0321,-0.0197,-0.003,0.0042,0.0121,0.0128,0.0215,0.0218,0.0211,0.0303,0.03,0.0232,0,0,0,0,0,0,-0.0401,-0.0432,-0.0458,-0.0518,-0.0553,-0.0589,-0.0585,-0.0543,-0.0476,-0.0387,-0.0292,-0.0199,-0.0045,-0.0074,0.0117,0.0141,0.0142,0.0306,0.0307,0.0305,0.0302,0.0299,0.0229,0,0,0,0,0]}]]